Theta_e
301 302 304 305 306 306 305 304 305 310 313 313 314 313 312 312 323 332 337 338 338 340 338 337 336 339 339 337 337 335 336 335 335 333 334 332 332 332 332 331 332 331 329
299 299 300 300 301 301 302 302 302 305 309 312 315 316 317 314 314 326 332 337 337 337 340 339 337 338 339 338 336 336 336 334 337 336 333 332 331 331 332 331 331 331 331
298 297 297 299 299 298 297 299 299 301 306 309 313 316 317 315 312 319 331 332 337 337 337 339 338 337 338 338 336 336 336 335 336 336 335 333 333 332 332 330 331 332 332
297 296 296 296 295 296 297 297 298 299 302 306 309 312 314 314 313 312 313 327 332 335 337 338 338 337 337 338 337 336 335 334 334 336 335 334 331 330 333 331 331 332 332
296 296 295 293 294 295 295 296 297 298 300 303 306 309 313 314 314 313 314 314 326 333 335 337 338 338 338 339 337 336 336 334 333 333 335 335 334 330 330 330 330 330 330
295 295 294 294 294 295 294 294 295 297 299 302 304 306 309 312 313 313 315 312 315 330 333 337 338 335 338 338 336 335 333 334 334 332 331 328 330 331 331 331 329 328 328
294 294 293 292 293 294 293 293 294 296 298 301 303 306 307 310 313 313 314 315 320 318 331 337 337 337 338 338 336 334 333 333 334 333 333 331 329 329 329 330 329 327 328
294 294 293 293 292 292 292 292 293 294 297 300 302 304 305 308 312 314 312 312 313 319 327 330 336 337 338 337 338 336 332 331 332 332 334 331 330 331 331 328 326 327 327
294 293 292 292 292 291 291 291 291 293 296 298 299 300 303 307 312 315 315 313 315 316 317 327 333 336 336 337 338 335 334 331 330 330 332 327 329 331 331 324 325 325 326
293 293 292 292 292 290 290 291 292 292 293 295 296 298 300 300 306 315 316 317 317 317 322 324 322 336 337 337 339 337 338 335 334 332 330 328 331 330 326 327 327 324 325
293 292 291 291 291 290 290 291 291 291 292 294 295 296 298 298 301 313 310 315 316 316 319 320 332 335 335 332 334 338 337 336 334 327 328 329 328 326 327 328 326 325 325
292 291 291 290 291 290 290 289 290 292 292 292 293 294 295 295 299 306 306 310 317 316 318 318 316 334 334 334 335 334 334 332 329 328 330 329 329 330 330 327 328 328 327
292 291 291 290 289 290 290 289 289 291 293 292 292 292 293 293 297 302 302 305 308 311 313 317 300 325 330 329 330 331 328 329 329 330 330 331 331 330 330 329 328 328 328
292 291 290 289 288 289 289 289 289 290 290 291 290 290 291 293 295 297 301 302 303 305 309 311 305 303 318 325 324 324 325 323 325 324 325 327 327 327 326 326 327 327 327
291 291 290 289 287 287 287 289 289 290 290 289 290 291 290 292 292 296 299 302 301 299 303 305 308 305 303 311 314 315 323 324 324 319 319 320 321 321 322 322 324 326 324
291 290 289 288 286 286 287 286 288 289 289 288 289 290 290 292 292 293 299 301 301 301 300 301 300 306 303 305 305 305 308 309 308 309 310 311 313 315 317 319 321 320 320
289 289 288 287 286 285 286 286 286 287 287 287 288 289 290 291 291 292 295 299 301 301 297 296 295 300 304 305 306 307 306 306 308 309 310 310 310 310 310 310 312 318 318
288 288 287 287 285 284 285 285 285 286 286 286 287 287 287 288 289 291 294 296 295 294 293 293 293 294 300 301 303 301 301 302 305 306 308 309 309 309 310 310 311 310 312
287 287 286 285 284 284 284 284 285 285 285 286 286 287 286 288 290 291 290 291 291 292 291 291 293 291 294 296 296 298 298 300 301 301 302 302 304 307 309 308 308 309 311
286 285 285 284 283 283 283 284 283 285 285 285 285 286 286 287 288 288 289 289 289 290 289 290 290 292 292 292 294 296 296 296 298 298 299 299 303 306 306 308 309 311 311
285 284 284 283 283 283 284 284 283 283 284 284 285 285 285 285 285 286 288 290 290 290 290 290 289 289 291 291 292 293 293 294 295 295 295 297 299 301 304 306 308 310 313
285 284 283 282 282 283 284 283 283 282 282 283 284 285 285 285 284 285 285 285 286 288 289 289 289 289 288 289 290 292 292 292 293 292 292 293 294 297 299 304 306 309 315
284 283 282 282 282 282 283 282 281 282 282 283 283 283 283 284 283 283 283 284 283 284 285 285 285 285 286 287 289 289 289 290 290 289 289 291 292 294 296 298 302 305 309
284 283 282 281 281 282 282 281 281 281 282 283 282 282 282 282 283 283 282 282 281 280 282 282 283 283 285 286 287 287 287 288 288 288 288 289 290 291 292 293 295 297 299
284 283 282 281 281 281 282 281 280 281 282 282 281 281 281 281 281 282 282 282 281 280 278 279 279 280 281 280 282 284 285 284 285 287 288 288 288 289 288 288 289 290 292
283 282 282 281 281 281 281 281 280 280 280 280 280 280 280 280 280 280 280 280 280 279 277 277 277 277 278 282 283 284 285 285 285 285 285 284 284 283 283 283 284 285 286
Wind_Speed
33 36 38 39 41 37 36 35 34 32 32 36 34 32 31 33 36 44 44 47 44 45 44 46 45 41 42 41 36 37 34 32 27 27 29 24 20 19 20 19 20 21 23
34 37 40 42 42 42 41 38 38 34 31 33 37 33 29 36 36 37 45 45 49 48 50 49 50 44 42 42 41 39 39 35 30 31 29 28 28 30 30 30 29 27 26
33 40 44 45 44 43 42 41 39 38 33 30 34 39 36 35 41 38 41 50 52 51 53 52 49 49 45 47 46 44 42 42 35 32 24 16 17 26 30 29 30 32 31
30 37 43 45 44 44 41 39 39 37 36 31 32 31 31 34 39 43 44 47 55 55 52 55 52 54 50 50 48 44 41 40 42 37 39 27 17 18 11 19 22 23 30
32 39 40 40 41 43 43 38 37 36 34 34 31 32 33 30 36 39 39 43 52 56 61 58 57 58 58 55 50 47 44 42 44 46 43 41 37 26 20 16 19 19 19
31 36 36 39 40 40 41 38 36 32 31 31 28 28 32 31 33 32 34 47 47 55 60 68 64 61 65 60 54 49 48 45 46 45 45 44 43 43 39 34 33 31 23
33 36 39 40 41 43 40 38 38 33 30 27 25 26 29 30 32 31 35 38 43 49 60 66 70 64 69 61 55 53 54 50 46 43 43 44 42 39 37 34 27 25 24
33 35 36 38 38 37 37 37 39 34 30 28 23 19 23 28 30 33 35 43 44 42 42 59 66 66 66 61 56 56 54 52 46 44 43 41 40 40 35 27 28 26 27
29 33 34 35 37 35 36 37 38 33 27 25 23 19 16 17 23 26 28 39 40 42 39 49 69 58 63 59 54 55 53 50 45 41 41 39 41 38 33 28 28 27 28
28 31 32 35 35 35 36 36 36 37 31 22 24 21 18 19 10 16 19 30 30 41 40 31 65 61 52 58 56 54 49 48 45 42 42 38 38 37 33 33 29 32 32
23 28 32 34 34 34 36 38 37 38 35 29 28 25 21 20 16 11 4 11 22 21 26 33 41 63 54 50 51 48 50 48 46 40 35 35 35 36 35 36 32 33 35
23 25 31 36 36 35 37 39 39 35 34 36 33 34 28 25 22 14 11 5 5 7 17 23 29 43 45 46 48 42 40 38 37 35 31 35 31 31 33 30 28 31 34
24 25 32 36 37 36 37 38 40 36 34 35 34 35 33 31 29 23 23 17 18 18 6 12 23 40 36 39 38 39 27 17 17 22 26 22 21 23 25 29 32 36 37
24 24 29 35 36 35 35 36 37 35 33 33 33 35 33 34 33 28 30 28 29 24 13 5 23 24 25 28 24 25 33 29 29 25 29 31 32 32 30 32 36 40 41
24 24 28 33 33 33 34 33 34 34 35 35 35 36 34 32 33 34 28 30 29 33 25 17 8 16 18 14 14 12 22 29 31 32 30 31 35 36 36 36 34 29 34
22 22 23 30 32 31 32 32 32 34 35 36 35 35 33 32 31 33 33 28 25 28 27 21 15 17 18 17 5 2 8 14 24 27 29 31 33 35 38 38 37 36 36
19 21 21 27 29 28 28 29 30 31 33 34 33 35 33 34 31 31 33 31 29 23 23 20 17 18 17 16 15 11 9 11 13 16 19 21 22 26 31 40 47 47 43
16 17 19 24 24 27 27 25 28 30 32 33 34 33 36 35 35 34 39 39 29 24 24 22 23 21 22 18 14 13 10 10 9 10 13 16 17 19 27 33 36 40 47
14 14 16 20 22 25 25 25 27 29 31 32 32 34 34 38 40 40 37 34 29 27 25 25 26 24 24 20 17 15 13 13 11 9 8 11 13 16 22 29 31 31 33
14 14 15 18 21 24 24 25 28 28 31 30 31 31 33 36 36 36 34 33 31 29 29 32 32 32 31 31 27 24 22 19 16 13 11 11 13 16 19 23 25 28 26
15 15 16 18 21 22 23 25 27 29 26 26 25 28 29 30 36 35 34 32 32 32 34 33 34 36 35 34 32 28 25 26 24 23 21 17 14 13 16 18 18 20 27
16 17 16 17 19 22 23 25 27 25 25 25 27 27 28 29 31 33 33 34 33 33 34 34 35 36 36 36 35 31 28 26 25 23 22 23 23 20 16 16 19 19 25
16 18 15 16 19 21 21 25 26 25 25 24 27 26 26 26 27 33 35 35 36 35 35 36 37 38 36 35 36 34 30 28 25 22 20 19 20 19 18 16 16 17 17
15 17 15 17 19 21 20 21 23 25 25 25 27 27 27 26 27 31 33 35 37 36 32 35 35 36 36 36 35 33 32 30 27 23 24 25 24 23 22 21 19 17 17
11 15 16 15 18 20 20 20 22 25 26 24 25 26 26 26 25 25 27 30 31 33 30 29 30 31 33 31 27 29 29 29 28 26 27 29 31 32 32 31 29 26 23
9 12 14 14 17 18 17 19 21 23 26 24 25 27 24 24 24 24 19 18 21 25 27 23 25 24 23 23 24 27 26 27 26 30 35 37 37 37 35 35 35 33 31
Wind_Direction
356 355 349 340 332 327 325 322 314 288 284 272 284 271 272 277 267 253 241 234 231 223 221 226 223 216 217 218 212 210 215 211 221 217 224 232 233 234 233 239 233 241 244
356 354 351 349 345 337 330 327 324 318 294 290 287 286 274 275 267 266 251 242 233 230 221 220 222 218 216 219 215 210 211 214 211 216 224 220 230 235 235 238 241 243 243
354 355 354 351 346 341 334 329 326 323 315 298 290 273 266 268 260 256 253 244 238 231 226 220 221 220 216 220 219 213 211 213 212 218 209 202 220 229 240 245 240 239 242
359 358 355 351 347 344 336 329 327 326 323 309 298 294 287 273 265 263 254 254 242 235 226 220 222 221 216 219 218 213 211 214 214 212 217 218 220 209 207 224 226 224 235
359 2 356 351 351 347 342 335 330 327 324 316 305 297 287 276 263 263 260 260 253 241 235 223 220 220 215 218 219 216 212 214 217 218 217 223 230 227 219 222 228 222 226
1 4 358 357 356 351 346 341 336 333 333 324 312 301 296 285 271 257 263 258 260 248 238 228 222 219 215 214 215 221 219 216 219 222 227 231 224 226 229 235 244 248 249
5 2 1 1 0 359 354 348 343 334 337 328 328 315 303 296 285 270 255 259 262 262 247 232 219 221 214 214 212 218 223 221 220 224 228 234 235 237 237 241 246 250 249
4 6 1 4 4 2 2 360 354 341 337 338 340 338 321 302 293 286 265 261 265 267 275 252 211 217 213 214 212 213 221 224 223 226 229 238 237 236 239 250 254 256 257
355 3 2 6 8 4 5 5 5 359 345 339 340 345 336 326 294 285 269 264 266 267 270 243 209 219 212 208 209 211 216 221 223 224 232 233 238 242 239 255 261 254 252
357 1 4 6 8 6 8 9 11 11 5 356 359 358 359 9 331 271 267 258 258 252 261 292 208 222 215 209 213 214 214 217 222 226 230 230 236 237 254 264 259 249 250
356 0 3 6 8 7 13 11 12 14 17 16 13 18 19 19 34 237 317 250 235 253 279 275 229 211 210 206 208 210 215 216 221 232 233 235 235 251 259 266 257 246 246
360 2 4 6 8 9 12 12 11 13 19 24 21 25 23 22 39 76 60 49 166 217 265 273 326 163 178 190 200 201 209 223 230 239 240 251 250 255 259 255 251 248 250
10 6 6 5 8 10 13 11 12 13 15 21 22 25 31 31 46 52 62 56 66 85 120 210 352 138 168 181 171 185 200 203 196 199 218 225 238 239 243 253 255 254 253
18 10 5 2 8 12 14 12 12 17 19 21 21 24 28 38 46 49 51 56 62 64 105 96 343 57 131 166 172 196 209 222 232 231 234 235 238 239 242 248 258 262 260
21 13 5 2 6 12 13 15 16 19 23 22 21 25 30 35 45 50 51 53 54 55 57 63 4 13 38 101 154 177 200 217 233 240 241 238 240 241 244 246 244 252 261
21 14 7 1 4 14 12 12 15 19 26 26 25 28 31 38 40 50 53 51 52 57 51 47 18 24 6 32 20 324 260 248 252 254 252 251 250 249 246 247 249 250 252
20 14 6 2 3 13 14 13 16 18 25 28 29 32 32 39 44 51 56 57 50 47 37 37 30 37 32 11 10 9 317 283 270 271 273 269 266 262 259 252 248 244 246
16 13 4 359 8 14 15 15 21 23 21 25 25 32 32 38 44 49 52 54 54 55 46 37 34 30 35 24 22 10 351 332 331 309 289 286 282 272 265 262 255 249 242
10 10 1 0 15 14 12 20 24 24 25 22 23 24 31 34 39 43 47 55 57 58 53 42 41 38 48 42 35 33 26 17 6 342 316 300 291 278 269 271 275 272 263
15 15 8 7 18 13 18 26 30 26 25 21 25 27 29 32 36 41 45 49 51 52 51 46 40 38 41 37 32 28 25 26 20 16 354 329 311 296 280 281 283 275 274
17 18 16 18 17 10 19 29 32 31 27 26 23 30 39 34 33 36 37 39 41 43 43 40 37 37 37 35 32 28 25 24 20 11 1 355 347 332 313 294 297 281 270
16 15 15 20 18 13 20 28 30 30 29 31 31 34 34 35 29 31 34 35 33 35 36 35 34 33 32 32 30 29 27 23 21 16 10 5 1 355 337 322 307 289 266
15 15 17 23 20 19 26 31 26 25 27 33 35 38 40 38 39 30 28 30 30 30 30 29 28 27 26 28 27 27 27 27 24 18 16 17 13 9 2 345 325 307 285
10 8 16 25 19 18 29 36 30 24 27 30 33 36 39 40 40 38 24 23 25 25 26 25 23 22 22 22 20 20 24 26 27 26 28 30 33 30 23 15 12 1 351
360 3 17 24 22 24 35 36 35 29 27 30 30 31 37 40 45 50 33 20 20 19 26 28 20 20 21 21 22 22 27 29 28 27 31 32 32 32 29 27 22 14 8
355 11 22 24 26 30 36 37 38 38 27 35 32 29 31 36 39 39 48 49 19 21 25 36 30 20 24 22 25 25 24 28 29 32 35 34 33 30 30 29 27 22 17